MSG 4 DEB (BAFFLE COVER), 40990

Orbit data source: Space-Track

MSG 4 DEB (BAFFLE COVER), 40990 is space debris in GEO originally from a launch on Wed, 15 Jul 2015 UTC launched from the French Guiana (FRGUI). Debris objects in space refer to the collection of defunct objects orbiting the Earth. Examples of debris include non-operational satellites, rocket bodies, and fragments generated from explosions, collisions, or faulty payload assembly.

Not visible in the next 10 days
Identifier
40990, 2015-034F
Orbit
GEO
Country
Flag of UnknownUnknown / EUME
Related business
Manufacturer
SENER
Mission
Spacecraft
Bus & Motor
MSG COVER, Unknown motor
Mass
~0 kg wet, ~10 kg dry
Launch date (UTC)
2015-07-15 (10 years ago)
Launch vehicle
Unknown
Launch site
French Guiana (FRGUI)
Object type
Payload
Rocket body
Debris
Shape & HBR
Box, 0.6 m
Radar Cross Section
0.435 m²

Expand to show TLE details & history
Last TLE update: 23 hours ago

TLE from 23 hours ago
0 MSG 4 DEB (BAFFLE COVER)
1 40990U 15034F   25258.97956679 -.00000330  00000-0  00000-0 0  9992
2 40990   6.3286  83.2025 0101595 180.4444 179.7390  1.02657123 38087
Epoch: 2025-09-15T23:30Z
TLE epoch observation values (Epoch: 2025-09-15T23:30:34.57Z)
Latitude
Longitude
95.56139°
Altitude
35,550.368 km
Speed
3.068 km/s
True Right ascension
05h 33m 31s
True Declination
0° 00' 00"
Sunlit
Object was in daylight at epoch
Visualization orbit readout
Latitude
Unknown
Longitude
Unknown
Altitude
Unknown
Speed
Unknown
Apparent Right ascension
Unknown
Apparent Declination
Unknown
Sunlit
N/A
Visualization observer readout
Local Sidereal Time
14:45:52
Azimuth
Unknown
Elevation
Unknown
Doppler factor
Unknown
Orbital elements
Apogee altitude
35,553.669 km
Perigee altitude
34,710.226 km
Semi-major axis
41,510.084 km
Eccentricity
0.01016
Inclination
6.3286°
RAAN
83.2025°
Arg. of periapsis
180.4444°
True anomaly
179.74424°
Mean anomaly
179.739°
Eccentric anomaly
179.74162°
Mean motion
0.25663 °/min
Orbital period
1,402.78 mins
BSTAR
0
Loading maneuver chart data...
Computing Atmospheric mass density...
Loading historical data...
Loading historical data...
Loading historical data...
Loading historical data...
Loading historical data...
Loading historical data...
Loading historical data...

Documentation

Showing up to 5 results
|